Wind_Speed
52 53 54 53 52 50 47 45 43 42 39 35 31 30 31 31 30 31 31 30 28 28 30 31 29 26 25 27 29 30 29 31 35 34 29 25 23 20 18 18 18 18 15 15 15 16 19 19 19 21 24 24 24 27 30 30 31 32 33 34 35 35 34 34 37 38 38 41 43 44 46 47 47 48 47 47 48 49 49 46 45 46 46 46 46 44 40
51 52 53 53 52 50 48 45 43 42 40 36 31 29 30 31 30 30 31 31 28 27 29 30 29 26 23 24 26 27 29 31 35 37 30 26 29 27 23 20 20 21 17 16 17 16 19 19 19 22 25 25 25 27 28 28 28 29 30 31 33 32 31 32 35 38 39 40 40 43 46 47 48 48 48 48 46 46 47 47 47 47 46 46 45 42 39
50 51 52 53 52 51 49 46 43 42 40 38 33 29 29 30 30 29 30 31 30 28 28 28 27 25 22 21 23 25 29 31 35 39 33 27 29 31 29 27 25 25 20 16 16 16 16 18 19 20 22 24 25 26 26 25 26 25 26 28 30 30 28 29 32 36 39 41 42 44 47 48 49 49 49 48 47 47 48 47 48 47 44 43 42 40 37
49 50 51 52 52 51 49 46 44 41 40 39 35 30 28 29 29 29 29 31 31 29 26 25 25 24 21 19 21 24 28 30 32 36 35 31 29 28 30 31 29 27 24 18 15 13 13 16 18 17 19 22 23 23 24 23 24 24 25 26 27 28 26 26 29 32 32 33 37 41 45 47 49 50 50 49 49 49 49 48 48 45 41 42 41 39 36
47 49 50 51 51 51 50 47 44 41 40 39 36 32 28 27 28 29 29 30 32 30 25 23 24 23 20 18 20 23 26 27 30 32 33 32 28 23 25 29 30 27 23 20 16 14 11 12 14 13 15 19 20 21 22 22 22 23 24 24 26 26 24 24 28 31 28 28 33 38 40 42 44 46 48 49 49 49 49 49 48 45 42 42 42 40 36
46 47 48 50 50 50 50 48 45 42 40 39 37 33 29 27 27 28 28 29 31 29 25 22 22 21 19 17 18 22 23 23 26 29 30 31 30 26 24 25 27 27 24 20 17 14 12 10 10 9 11 14 16 18 21 21 21 22 22 23 25 25 24 23 27 29 29 31 35 36 37 39 40 41 43 44 46 48 48 48 47 46 45 43 42 40 36
45 46 47 48 49 49 49 48 46 43 40 38 37 34 30 27 26 27 28 27 29 29 24 21 22 21 18 15 15 19 20 19 21 24 26 28 30 30 29 25 21 22 23 22 18 15 13 10 9 6 5 10 13 15 20 21 21 21 22 22 23 24 23 24 26 27 27 29 33 36 38 40 41 42 42 43 44 44 44 44 43 43 43 41 41 40 34
44 44 45 46 47 48 48 48 47 44 41 38 37 35 32 28 26 26 27 27 28 28 24 21 21 20 18 14 13 16 17 16 17 19 21 23 25 25 28 26 20 16 17 17 16 14 12 8 5 3 1 7 11 14 18 20 20 20 21 21 22 23 23 23 25 27 27 29 31 33 35 37 38 41 43 43 44 44 44 43 41 40 39 37 39 38 31
43 43 43 44 46 46 46 47 46 44 42 39 37 36 33 29 26 25 25 25 26 26 24 20 18 19 18 14 11 12 15 14 13 15 17 19 20 20 22 24 23 19 13 9 9 9 8 5 3 2 3 6 10 14 16 18 19 19 20 20 20 22 23 23 24 25 25 26 29 30 30 31 34 37 40 42 44 45 44 43 41 40 38 36 37 36 28
42 42 41 42 44 45 45 46 46 45 42 39 36 35 34 30 26 24 24 24 23 24 24 20 17 17 18 15 11 9 11 12 11 12 13 14 16 18 18 17 20 21 16 9 7 8 7 4 3 5 6 7 9 13 15 17 19 20 20 20 20 23 23 22 23 24 23 22 25 26 27 29 33 35 37 39 41 42 42 41 40 39 37 35 36 32 25
41 41 40 40 41 43 44 44 45 45 43 40 36 34 33 31 27 24 23 23 22 21 22 20 16 16 17 17 13 9 10 11 9 9 10 10 13 16 15 14 14 18 19 13 8 8 8 4 5 8 9 9 11 14 15 16 18 19 21 21 21 23 24 22 22 23 22 21 23 25 28 30 32 32 33 35 37 38 38 38 37 35 35 34 33 28 24
41 40 39 39 40 41 42 43 44 44 43 41 37 34 32 31 27 24 22 21 21 20 20 19 16 14 14 16 15 11 9 10 9 7 7 8 11 12 12 11 11 13 17 16 11 9 9 7 6 10 13 14 15 16 16 17 18 19 20 22 22 22 22 21 20 19 19 20 21 25 29 30 28 27 29 32 34 35 35 35 34 33 33 32 30 26 24
40 40 38 37 38 39 40 41 42 42 42 41 38 34 32 31 28 24 21 20 19 19 18 18 17 14 12 12 14 13 11 10 9 7 6 5 7 9 8 8 8 10 13 15 14 12 10 8 6 8 14 17 18 18 18 20 22 22 22 22 22 22 21 20 20 19 18 18 20 24 27 26 25 25 27 29 31 32 34 35 34 34 33 31 28 26 24
40 39 38 37 37 38 39 40 40 41 41 41 39 36 32 30 28 25 21 19 18 17 17 17 17 16 13 10 10 12 11 10 9 7 4 3 3 5 6 6 6 8 9 11 13 14 11 8 7 8 13 16 18 20 21 23 25 25 24 23 22 22 22 22 21 20 19 19 21 23 24 24 24 25 25 27 28 29 30 30 31 32 32 30 27 25 24
39 38 37 36 36 37 38 38 39 39 40 40 39 37 33 30 28 26 22 18 17 16 15 15 15 16 15 12 9 8 9 10 10 8 6 3 3 3 4 4 5 6 7 8 9 12 12 9 7 8 12 17 20 23 24 24 26 26 24 24 24 23 23 24 22 20 21 20 20 21 22 24 25 24 23 24 25 25 26 26 27 28 29 28 26 24 24
40 37 36 36 36 36 36 37 38 38 39 39 38 37 35 31 28 26 23 19 16 16 15 14 14 13 13 13 11 8 6 7 8 8 7 6 6 5 3 3 3 4 6 6 6 9 11 8 8 8 12 18 21 24 25 26 27 26 24 25 26 24 23 24 21 20 20 20 19 20 22 24 25 23 22 22 21 22 23 24 25 26 26 25 23 22 21
40 37 36 35 35 35 35 36 36 37 38 38 37 36 35 32 28 26 25 21 16 14 14 13 12 12 12 12 13 10 6 4 5 6 7 7 7 7 5 3 2 2 3 5 5 7 9 8 8 10 12 17 20 22 24 25 26 24 23 25 26 24 23 23 21 19 20 21 19 19 22 24 23 22 21 20 19 20 21 20 22 23 23 22 20 19 19
40 37 36 34 34 35 35 34 35 36 37 37 37 35 34 33 29 26 25 23 18 14 13 13 12 11 11 11 13 12 9 6 4 3 4 5 5 6 6 4 3 2 1 3 4 5 6 7 7 9 12 15 18 21 22 23 23 23 23 25 25 23 22 22 20 19 20 22 19 17 19 22 22 22 21 19 18 19 18 18 19 20 21 20 19 19 19
38 37 36 34 33 34 34 33 34 35 36 36 36 35 34 32 30 27 25 24 21 15 12 13 12 11 11 10 11 11 10 9 6 4 2 2 3 3 4 4 3 2 2 1 2 3 4 5 5 8 12 16 19 21 22 22 22 22 22 24 24 22 21 21 21 19 20 22 20 17 17 20 21 21 21 20 20 19 18 18 18 19 21 22 21 22 22
38 37 37 35 33 34 34 33 33 34 36 36 35 35 34 32 30 28 25 24 23 18 13 12 12 11 10 10 10 9 9 9 8 6 4 3 0 1 1 1 2 3 3 1 1 1 3 4 4 6 10 15 18 20 22 22 22 21 21 22 22 20 19 19 20 19 20 21 20 18 17 19 20 20 21 21 21 20 19 18 18 19 22 25 26 26 25
38 37 37 35 34 34 34 33 33 34 35 36 35 35 34 32 30 28 26 25 23 20 15 12 12 12 10 9 10 10 9 8 8 7 6 5 3 1 1 1 1 3 3 3 2 1 1 2 3 4 7 13 17 20 22 23 23 22 21 20 19 19 19 18 17 17 19 20 21 20 18 18 19 20 20 21 22 20 18 18 18 19 21 25 28 29 28
39 38 37 35 34 34 33 33 33 34 35 36 35 35 33 32 30 28 27 26 24 21 17 13 11 12 11 9 9 11 10 8 7 7 7 7 7 4 2 1 1 3 4 5 4 3 1 2 2 4 6 11 16 19 21 22 22 22 22 21 17 15 16 17 15 15 17 19 20 21 19 16 16 18 18 18 18 19 19 18 18 19 20 23 27 30 29
42 40 37 35 34 33 33 32 32 33 35 36 36 35 33 32 31 28 26 26 25 22 19 14 11 11 12 10 9 10 11 10 8 8 8 8 10 9 5 1 1 1 3 5 5 5 4 4 4 4 5 9 13 17 19 22 22 22 23 22 17 12 11 12 11 12 16 19 19 19 19 17 16 17 16 15 16 17 18 18 18 18 19 21 24 28 30
43 39 36 34 33 32 32 32 32 34 36 36 36 35 33 32 31 29 26 25 25 24 20 15 11 11 12 12 10 9 11 12 11 9 8 8 8 10 8 4 2 2 1 3 5 5 5 6 6 6 6 7 10 14 18 21 22 22 23 23 20 14 10 8 7 8 12 16 18 19 18 18 17 16 16 16 16 16 16 15 15 16 18 19 21 25 29
42 38 35 33 32 32 32 32 32 34 37 37 36 34 33 32 31 29 26 24 24 24 21 16 11 11 11 11 11 10 9 10 11 10 9 8 8 8 9 7 4 4 2 1 3 5 6 6 7 8 8 8 8 11 15 18 20 21 22 22 21 17 13 10 8 6 7 10 15 17 19 19 18 17 16 17 17 17 15 13 13 16 18 20 21 23 26
38 35 33 32 31 31 31 32 33 35 37 37 36 34 32 31 31 30 27 24 22 23 22 18 14 11 10 11 11 11 9 8 10 11 10 8 7 7 9 9 7 6 5 2 1 4 6 7 7 9 9 9 8 9 12 16 18 20 20 19 19 18 16 14 12 9 7 8 10 13 15 18 19 18 17 17 17 17 16 14 15 17 19 20 21 23 26
34 33 31 31 30 30 30 31 33 36 37 37 36 33 31 30 31 30 27 24 22 22 22 20 16 12 10 10 10 10 10 8 8 10 10 8 6 6 8 10 10 9 7 4 4 6 6 7 8 8 9 10 9 10 11 13 16 17 18 19 19 19 18 17 15 13 11 9 9 10 11 13 16 19 20 19 17 17 17 17 18 19 19 20 20 23 26
32 31 30 29 27 27 29 31 34 36 37 36 35 32 30 30 31 30 28 24 21 21 22 21 18 13 11 10 10 11 11 9 8 10 10 9 7 7 8 9 10 11 10 9 9 9 9 9 10 10 10 10 10 10 11 12 14 16 18 19 20 20 18 17 17 16 14 12 11 11 11 11 14 17 18 18 18 17 18 18 19 19 20 20 20 22 26
31 31 29 27 25 26 29 32 35 36 37 36 34 31 30 30 30 30 28 24 21 20 20 21 19 15 12 10 11 13 13 11 10 10 11 11 10 9 8 9 10 10 10 10 11 11 10 10 12 13 12 11 11 11 11 12 14 15 17 19 20 21 20 19 18 17 16 15 14 14 14 14 13 15 17 18 18 18 18 17 17 18 18 20 22 25 27
29 29 27 26 26 29 32 34 36 37 37 35 33 30 29 29 30 30 28 24 21 20 20 20 19 16 14 11 10 13 14 13 11 10 11 12 12 11 10 10 10 10 10 10 11 12 12 11 11 12 13 14 14 14 13 13 14 16 17 17 19 20 20 20 20 18 18 17 16 15 16 15 15 16 17 18 18 18 17 16 16 17 18 19 22 26 29
27 27 27 28 30 32 34 36 37 37 36 34 32 29 29 29 29 29 28 25 22 20 19 20 19 16 14 13 11 11 14 14 13 12 12 12 12 12 11 11 11 11 10 10 10 12 14 14 14 13 12 13 15 15 15 15 15 16 16 16 17 18 18 19 19 19 18 17 17 17 17 17 17 18 18 18 17 18 18 18 18 19 19 18 18 22 26
28 29 30 31 33 34 36 37 38 38 36 33 31 30 29 29 29 29 27 24 22 20 19 19 19 16 14 13 12 11 12 14 14 14 14 13 13 13 12 12 11 11 11 11 11 11 13 15 16 16 14 13 14 15 16 17 17 18 17 17 17 17 18 18 19 19 19 19 19 19 19 18 19 20 19 19 19 20 21 21 21 21 20 19 19 19 21
32 33 34 34 35 35 36 38 39 38 36 33 30 29 29 29 29 29 27 24 22 21 19 18 18 17 14 13 12 11 11 13 15 16 16 15 14 14 13 12 11 11 12 12 11 11 12 14 15 16 16 16 15 15 15 16 18 18 18 18 19 19 19 19 20 19 19 19 20 21 21 20 20 20 19 20 21 22 22 22 22 21 21 21 21 20 20
34 35 35 35 35 36 37 39 40 38 35 31 29 28 29 29 29 28 27 25 23 21 19 18 17 17 15 13 12 12 11 12 14 17 17 17 16 16 15 13 13 12 12 12 13 13 12 12 13 14 15 16 17 17 17 16 17 18 19 20 20 21 21 21 21 20 20 20 20 21 21 22 22 22 22 21 21 21 22 21 20 20 20 21 21 20 20
34 33 33 33 35 38 39 39 38 36 33 30 29 28 29 30 29 28 27 25 23 22 20 18 16 15 16 15 12 10 11 12 14 16 18 19 18 18 17 15 15 13 12 12 13 14 13 12 12 12 12 14 16 18 18 17 17 18 19 20 21 22 23 23 22 21 21 21 21 21 22 23 24 25 24 23 22 22 23 21 19 19 19 20 21 21 21
32 32 32 34 36 38 37 36 35 33 31 29 29 28 29 29 29 27 25 24 23 22 21 19 16 14 15 15 13 10 11 12 13 15 17 18 19 19 18 18 17 15 13 13 14 14 13 13 13 13 13 13 15 17 18 19 19 18 19 20 21 23 24 24 23 23 23 23 23 23 23 24 25 25 24 23 23 25 25 24 22 21 20 21 21 22 22
32 33 35 36 36 35 34 33 34 33 31 29 29 29 29 28 28 26 25 24 23 22 21 19 16 14 14 15 14 13 12 12 13 14 16 17 18 19 20 20 19 17 15 14 14 14 13 13 14 14 14 14 15 16 17 19 19 18 18 19 21 23 25 25 25 25 25 25 26 25 25 25 27 27 26 24 24 25 25 26 25 24 23 21 21 21 22
33 34 35 34 34 33 33 34 35 34 32 30 28 28 28 27 26 25 25 24 23 22 21 19 17 16 16 15 15 15 14 13 13 14 16 17 18 19 20 21 21 20 18 17 16 14 14 14 14 15 16 16 16 16 16 18 18 18 17 17 17 19 22 23 24 25 25 26 27 27 26 26 27 27 27 26 25 25 25 25 26 26 26 24 22 22 22
33 34 34 33 33 33 34 35 36 35 32 29 28 28 27 26 25 24 24 24 24 23 21 19 18 17 17 16 15 15 15 14 14 15 16 17 18 19 20 21 22 22 21 20 19 16 15 15 15 15 17 18 17 16 16 17 18 18 18 16 15 15 16 18 20 22 23 24 25 26 26 26 27 28 28 27 26 25 25 25 25 25 26 26 25 24 24
34 34 34 34 34 34 36 37 37 35 31 28 28 28 27 26 25 25 24 24 23 22 21 20 19 18 18 17 16 15 15 15 15 16 17 18 19 19 20 22 22 22 22 22 21 19 17 16 15 16 19 20 19 18 18 18 18 19 18 17 15 13 13 15 17 18 19 20 20 21 23 24 25 27 28 28 27 27 26 25 24 24 24 24 25 26 26
34 34 35 36 37 37 38 38 36 33 29 27 27 27 27 26 26 25 24 24 23 21 20 20 19 18 17 17 17 16 16 15 16 16 18 19 20 20 21 22 22 21 22 23 23 21 19 17 16 17 20 20 20 20 21 20 20 20 19 17 16 14 13 15 17 17 17 17 17 17 18 19 20 21 24 26 27 27 26 26 25 24 23 22 22 23 25
38 38 38 39 39 39 37 34 31 29 27 27 27 27 27 27 26 24 24 23 23 21 20 19 20 19 18 17 18 18 17 16 16 16 18 20 20 20 22 22 21 21 22 23 23 22 21 19 18 18 19 19 19 21 21 22 22 22 21 20 20 19 18 18 19 18 17 17 17 17 18 18 18 18 19 21 23 25 26 26 25 24 23 22 22 22 22
41 41 41 40 38 36 33 30 28 27 26 26 26 27 27 27 25 24 23 22 22 21 20 19 19 20 18 18 18 18 18 17 17 17 19 20 20 21 22 22 20 20 22 23 23 23 22 21 21 20 19 18 19 20 21 22 23 23 23 22 23 25 24 23 22 20 19 18 19 20 20 20 20 19 20 20 21 22 23 24 24 24 23 23 23 22 22
40 40 39 37 34 31 29 27 26 25 25 26 27 27 27 26 24 23 22 22 21 20 20 19 20 20 19 18 18 19 18 18 18 18 18 19 20 20 21 21 20 20 21 22 22 22 22 22 23 23 21 20 19 19 20 21 22 23 24 24 24 25 26 26 25 23 22 21 21 22 22 22 22 22 22 22 22 22 23 23 23 23 23 23 23 23 23
37 36 34 31 29 27 26 26 25 25 25 26 27 27 27 25 23 21 21 21 21 21 20 20 20 20 20 19 19 19 19 19 19 18 18 19 19 19 19 20 20 20 20 21 21 21 21 22 24 24 24 23 22 20 20 20 21 22 23 24 25 25 26 26 25 24 24 23 23 23 24 24 24 24 23 23 23 23 23 23 23 24 24 24 24 24 24
32 30 28 26 25 25 25 25 24 25 25 26 27 27 26 25 22 20 20 21 21 21 21 21 20 20 20 19 19 20 19 19 19 19 19 19 18 18 18 18 19 19 19 19 19 19 20 22 24 25 25 25 24 23 21 21 20 21 22 22 23 24 25 25 25 24 24 24 24 25 25 25 25 25 25 24 24 24 24 24 24 24 24 24 25 25 25
27 26 25 24 24 24 24 24 25 25 26 26 26 25 24 24 22 20 19 21 21 22 22 22 21 21 20 20 19 19 20 19 18 19 19 19 18 18 17 16 16 16 17 18 19 19 21 23 24 25 25 25 25 25 24 22 21 20 21 21 21 22 22 23 23 23 24 24 24 25 26 26 26 26 26 26 25 25 25 25 25 25 25 25 25 25 26
25 25 24 24 24 24 24 25 25 26 26 26 25 24 24 24 22 20 19 21 22 22 23 23 23 22 21 20 20 19 20 20 19 18 19 20 20 20 19 18 16 16 17 18 19 21 22 24 24 24 24 25 25 26 26 25 23 22 21 21 20 20 21 21 21 21 21 22 23 25 26 26 26 26 27 27 27 26 26 26 26 26 26 26 26 26 26
25 25 24 24 24 24 24 25 26 26 26 26 25 24 23 23 22 21 20 21 22 23 23 24 24 23 23 22 21 20 20 20 19 19 20 22 23 23 22 20 19 19 19 20 20 21 22 23 23 23 23 24 25 26 26 26 25 24 23 22 22 21 21 21 20 20 20 21 22 23 24 25 25 26 26 27 27 27 27 27 27 27 27 27 27 27 27
24 23 23 23 23 23 24 25 26 27 27 25 24 23 23 23 22 21 21 22 23 23 23 23 24 24 24 23 21 20 20 20 20 20 22 24 25 25 24 21 19 20 21 21 21 20 20 20 21 22 23 23 24 25 26 25 25 25 25 24 23 23 23 23 22 21 22 22 23 23 23 23 24 25 25 26 27 27 27 27 27 27 27 27 27 27 27
22 22 22 22 23 23 24 25 26 27 27 26 24 23 22 22 22 21 22 23 24 24 24 24 24 25 25 24 23 21 20 20 20 21 23 24 25 25 24 21 20 21 23 23 22 21 20 19 19 19 20 22 23 24 25 24 24 25 25 25 25 25 25 24 24 24 24 24 24 24 23 23 23 23 24 25 25 25 26 26 26 26 26 26 26 26 26
22 22 23 23 23 23 24 25 26 26 26 26 24 23 22 22 22 22 23 24 24 24 25 25 25 25 25 25 24 22 21 20 21 22 24 26 26 27 27 25 22 22 23 24 23 21 20 19 18 19 20 21 22 22 22 22 22 23 24 25 25 25 26 26 26 26 26 26 25 24 23 23 22 22 22 23 23 24 24 24 25 25 25 25 24 24 25
Wind_Direction
357 357 357 359 -0 359 359 359 359 359 360 359 357 357 0 1 1 3 4 4 7 11 12 14 16 15 11 14 20 22 20 17 18 23 27 29 31 34 39 47 56 59 71 99 117 134 140 149 170 175 173 176 177 179 182 183 184 186 189 190 192 192 191 194 195 191 194 197 195 195 196 196 198 199 200 202 204 207 207 208 213 212 212 215 218 218 218
357 357 358 359 360 360 359 359 359 359 360 0 359 357 359 1 2 3 4 3 5 11 14 14 16 16 12 13 18 21 21 19 22 30 37 40 41 42 43 51 63 67 80 105 116 132 144 150 166 177 178 178 178 178 181 183 183 184 187 189 191 191 190 195 195 191 194 195 193 196 197 196 198 198 199 201 203 208 209 210 213 213 212 215 218 219 220
355 357 358 359 360 0 360 359 359 359 359 0 0 358 359 1 2 2 3 5 5 9 14 15 17 19 15 15 19 23 25 25 30 38 42 41 39 40 42 50 62 69 78 100 116 126 144 156 165 174 180 181 180 179 181 182 182 182 184 187 189 190 189 193 196 195 196 195 194 197 197 197 198 198 199 200 201 205 208 211 215 214 213 216 218 219 219
354 356 357 358 359 360 -0 359 359 358 359 360 1 360 359 1 2 2 3 7 7 8 13 17 20 22 20 18 22 25 30 35 37 42 45 42 36 33 37 45 56 66 73 86 105 119 138 157 164 171 180 183 182 183 182 182 182 181 183 185 188 191 191 191 194 195 196 197 199 200 198 198 199 199 199 199 201 205 206 209 213 213 215 218 218 219 217
353 354 356 358 359 360 0 360 359 358 358 359 0 1 360 0 2 3 4 7 8 9 13 17 21 24 25 25 27 29 35 41 41 41 46 49 49 44 38 41 51 62 70 76 89 104 120 145 159 166 176 183 187 189 187 185 184 182 182 184 186 190 192 191 193 193 191 196 202 202 200 201 202 202 202 200 201 204 206 208 211 211 213 217 218 218 214
351 353 355 358 359 359 360 360 359 358 358 359 360 1 0 360 1 4 5 7 10 10 12 17 20 24 27 28 30 33 40 44 42 41 45 50 55 57 49 43 49 59 67 72 80 90 100 122 144 153 171 182 186 191 191 189 185 183 182 184 186 189 191 191 194 196 196 198 199 199 199 201 203 204 205 204 204 206 207 209 210 210 212 214 217 217 211
350 352 354 357 359 360 359 359 359 358 358 358 359 0 1 360 1 4 6 8 11 11 12 16 21 25 30 31 31 36 43 46 42 42 47 48 51 57 59 53 48 55 63 67 72 80 87 103 120 122 167 184 184 191 194 190 187 185 183 184 186 187 190 192 194 197 200 200 199 199 200 200 201 202 203 204 207 209 211 213 214 215 214 215 218 218 209
348 350 353 356 358 360 360 359 359 358 358 358 358 360 1 0 0 2 6 8 11 11 11 14 19 24 30 33 35 37 42 45 42 43 49 49 48 54 60 58 54 53 54 55 59 67 74 84 93 78 152 186 187 193 194 190 188 186 183 184 185 185 187 192 195 197 199 201 202 202 203 203 202 203 202 202 205 208 211 214 216 219 219 218 222 221 208
347 348 351 354 357 360 0 359 359 358 358 358 358 359 1 1 0 1 5 9 11 11 11 13 17 23 29 35 38 38 41 44 44 45 49 49 47 49 54 56 56 57 57 58 58 57 60 67 76 104 173 194 195 194 192 189 185 183 184 185 182 181 185 191 194 195 198 202 203 202 202 204 205 206 205 205 205 207 210 212 214 217 218 219 222 220 205
345 347 350 353 356 359 1 0 359 358 357 357 357 358 359 1 1 0 3 8 12 13 11 10 15 24 32 39 44 43 42 44 47 52 52 51 49 48 50 52 51 51 56 74 85 64 56 79 126 144 165 190 194 190 190 188 182 179 182 183 180 179 184 190 193 193 195 201 203 199 198 203 205 206 206 207 209 211 212 213 214 216 217 218 220 218 201
344 345 348 351 354 358 0 1 0 359 357 357 358 358 358 0 1 360 360 4 10 14 13 10 11 20 31 40 46 48 47 46 52 62 61 55 49 46 46 45 45 47 48 57 76 65 52 76 141 147 151 163 172 175 181 182 179 177 178 179 180 182 185 188 190 193 195 197 197 196 199 203 204 204 205 208 211 213 215 217 217 218 219 219 220 216 199
343 344 346 349 352 355 358 -0 1 359 357 356 357 358 358 359 0 359 358 360 5 10 13 11 8 12 25 37 43 48 52 53 61 76 76 61 49 44 42 38 37 39 40 46 60 57 44 58 120 146 147 151 156 160 165 167 166 170 175 177 180 184 186 185 184 189 195 195 194 197 201 203 201 200 204 208 211 214 216 218 218 220 222 222 221 215 199
341 342 344 347 349 351 355 358 360 360 357 355 355 356 357 358 359 359 357 357 1 5 8 8 6 6 13 29 39 43 48 55 66 89 103 84 57 48 46 41 35 31 31 39 48 46 44 60 99 137 143 145 148 151 155 157 157 163 173 179 180 181 182 180 180 185 187 188 194 199 201 200 198 199 203 207 210 214 216 217 217 217 219 220 218 213 199
340 340 342 345 346 348 351 355 358 359 358 355 354 354 356 357 357 359 357 354 356 1 4 3 3 2 1 9 27 37 42 49 61 81 105 112 64 51 55 55 43 32 27 31 35 37 45 70 94 124 141 147 150 153 155 155 158 165 174 179 179 178 179 180 182 184 182 181 191 199 199 196 197 200 203 206 210 214 217 219 220 220 220 218 215 210 201
339 338 340 342 344 345 348 352 355 357 357 356 353 352 354 356 355 356 357 353 350 354 0 2 359 359 358 354 359 18 33 42 53 63 69 67 50 49 69 71 52 33 22 22 31 37 45 73 105 131 149 154 155 156 157 158 163 169 175 178 177 178 182 185 185 185 184 183 188 193 193 195 197 200 204 206 209 214 218 218 220 221 221 219 216 211 203
338 337 337 339 340 343 346 349 352 354 355 356 353 350 351 354 355 354 355 354 348 344 350 357 356 354 355 350 343 342 1 28 42 51 55 54 51 51 73 90 72 40 19 20 37 40 42 70 112 132 150 158 158 158 160 162 167 170 174 178 178 178 183 187 186 187 187 186 186 187 191 196 197 198 203 206 208 214 218 218 219 220 219 218 216 213 206
337 336 336 337 337 339 343 346 349 351 353 354 353 350 348 350 354 353 351 352 350 341 339 348 353 350 347 347 344 335 325 344 21 38 46 52 55 57 67 89 101 77 29 30 53 48 38 62 111 135 152 159 161 163 164 164 167 170 174 178 180 179 183 187 187 187 189 190 187 187 191 195 195 197 201 204 207 213 216 217 218 219 218 215 209 206 206
334 335 335 335 335 336 340 343 346 348 350 351 351 350 348 347 350 351 349 349 349 343 333 335 345 349 345 343 344 339 325 311 316 354 33 44 48 51 58 73 97 121 69 41 67 66 41 50 102 138 157 162 162 167 168 166 169 174 177 180 182 182 184 189 190 188 189 191 190 187 190 194 195 198 200 201 206 212 214 215 217 217 214 209 201 198 203
333 334 334 334 333 333 336 340 343 346 348 348 349 349 348 346 346 347 347 346 347 345 332 325 330 341 345 341 338 337 329 314 299 288 308 22 43 43 44 58 78 106 115 67 67 73 50 46 86 137 163 169 168 170 171 172 175 180 183 185 187 186 185 189 194 193 191 192 192 192 192 194 196 200 201 202 206 209 209 210 211 210 205 202 198 195 200
333 332 332 332 330 330 332 336 340 344 345 346 346 347 347 345 344 344 344 344 345 345 336 322 318 324 336 339 331 328 327 316 304 286 268 260 4 37 12 47 97 125 137 140 109 72 68 63 77 125 165 177 176 174 175 178 181 185 187 190 195 197 195 194 196 196 195 194 195 197 199 199 200 202 204 205 206 208 207 205 205 204 202 202 200 197 197
333 331 330 329 328 327 329 332 335 340 343 344 344 344 345 344 342 342 341 340 342 344 338 325 312 309 319 333 328 321 322 321 312 297 278 264 262 310 350 321 189 177 178 190 206 196 92 100 94 113 158 181 185 183 182 183 186 190 191 193 198 204 207 206 203 200 198 198 200 202 202 202 202 203 205 206 206 208 209 207 206 205 204 204 204 203 201
331 329 327 326 325 325 327 329 332 335 340 342 341 341 342 343 342 341 340 337 338 341 339 331 313 301 303 320 328 320 317 318 317 309 296 278 270 274 301 336 246 207 206 206 203 202 194 171 141 124 151 178 189 191 190 188 191 196 197 196 197 196 197 204 210 209 205 204 205 206 207 206 206 207 208 207 207 208 211 213 213 211 208 206 206 207 205
329 326 325 324 323 324 326 328 329 332 336 339 339 338 339 341 341 340 339 336 334 336 339 336 317 300 298 305 318 320 315 312 314 318 314 293 275 270 264 232 104 134 202 200 193 194 197 192 178 157 160 175 185 192 195 195 198 203 203 203 204 193 182 193 210 217 216 213 210 210 213 214 214 213 211 211 214 213 212 212 214 215 213 210 208 207 207
325 323 323 322 322 322 324 326 327 329 332 335 336 336 336 338 340 339 338 336 331 332 338 339 319 298 295 295 300 310 312 310 311 318 325 314 287 270 253 222 129 87 156 187 180 182 191 195 188 177 175 181 186 194 198 199 203 209 209 211 215 211 194 190 199 207 216 219 218 219 220 220 219 218 214 215 217 216 212 211 215 220 219 214 211 209 208
322 321 321 321 321 321 322 323 325 327 329 332 333 333 333 335 338 338 337 336 331 327 332 338 326 303 291 286 287 293 301 306 308 312 320 323 306 273 249 229 181 139 135 177 187 185 186 194 195 186 186 193 196 198 202 203 207 212 213 214 219 219 214 213 218 215 207 210 218 227 229 228 228 225 220 220 221 221 222 223 226 228 224 218 214 211 210
320 320 320 321 321 320 321 323 325 326 328 330 331 331 331 333 336 336 335 335 332 325 325 332 332 315 295 281 279 283 289 299 305 305 308 319 314 276 248 233 202 161 129 100 214 204 185 183 193 192 190 195 200 203 204 204 208 213 215 216 220 221 220 225 236 243 230 209 215 226 229 231 232 229 227 229 230 229 231 233 233 230 225 219 217 215 213
318 318 319 320 321 321 323 325 327 328 328 329 329 329 329 331 334 335 334 333 331 325 321 326 332 325 302 283 274 273 276 285 297 298 297 302 299 268 247 236 218 194 172 169 211 225 207 189 192 195 194 198 203 206 204 202 205 209 212 215 219 221 222 227 235 241 239 228 223 224 225 227 229 229 231 235 237 237 237 238 237 232 223 218 219 220 217
317 316 317 319 320 321 325 328 329 330 330 329 327 327 328 330 332 333 332 332 330 325 319 319 327 329 312 288 273 267 267 270 282 289 288 284 273 252 244 241 231 221 214 208 213 220 215 201 196 195 194 197 203 204 201 199 203 210 213 214 217 220 221 225 230 236 240 239 233 229 228 227 225 226 229 233 236 239 239 239 238 234 224 220 222 224 222
315 315 316 317 318 320 324 327 329 331 331 329 326 325 327 330 331 331 330 329 329 325 317 315 321 329 321 294 272 266 265 263 266 275 280 278 269 253 245 248 245 237 232 228 224 223 217 206 199 197 195 194 198 202 201 200 205 213 216 216 217 220 222 226 230 235 241 244 240 234 234 233 225 220 220 220 221 227 233 235 237 237 233 230 229 227 224
316 317 318 317 317 319 321 324 327 330 330 328 325 324 326 328 329 329 328 327 327 325 317 312 316 325 324 306 278 265 263 260 256 259 267 272 271 264 257 257 256 250 243 240 238 236 231 221 210 205 201 199 200 203 204 203 206 213 217 218 219 222 225 230 234 237 239 242 241 237 237 236 230 225 225 223 220 223 228 233 237 238 236 235 232 228 225
316 318 318 316 316 316 317 320 323 326 328 327 324 322 324 327 328 328 326 325 325 324 317 311 313 322 326 316 292 268 261 259 253 250 254 260 266 266 262 259 257 256 254 250 246 243 240 234 228 223 215 209 209 210 209 208 210 213 215 217 220 222 225 229 232 235 236 239 240 239 239 238 235 234 236 234 230 231 236 240 240 236 231 230 230 227 225
312 313 314 314 313 314 315 317 320 323 326 326 323 322 323 326 327 327 325 323 322 321 317 311 311 319 326 320 303 280 264 258 254 250 248 252 258 263 261 257 253 251 253 254 253 250 245 239 235 233 229 222 219 218 217 216 218 218 217 217 220 223 225 228 230 231 233 236 239 240 240 239 238 238 239 237 237 241 243 241 237 233 231 232 233 230 225
307 308 309 310 311 313 315 316 318 320 323 323 321 320 322 325 327 326 323 321 319 318 316 312 311 317 323 319 305 291 273 259 255 253 249 248 251 257 260 259 255 250 248 249 252 254 252 247 241 237 234 231 228 227 225 223 225 226 225 224 226 228 229 229 230 230 231 234 238 240 240 238 237 238 240 241 242 242 240 236 234 235 238 241 242 241 238
305 306 308 309 311 312 313 314 315 317 319 319 319 320 322 325 327 325 321 318 317 317 316 314 312 314 316 313 306 299 284 263 253 251 249 246 246 250 255 259 259 253 248 246 247 249 253 255 252 244 237 232 231 231 231 230 231 232 232 230 230 230 229 228 228 229 232 234 238 240 241 239 237 238 239 239 239 239 240 243 244 244 244 246 248 249 249
305 307 309 311 313 314 314 313 313 314 317 318 318 319 321 323 324 322 318 316 316 316 315 314 313 311 309 309 309 302 285 267 255 250 248 245 243 245 249 254 257 256 251 247 246 246 248 251 254 251 242 234 232 233 234 234 235 236 236 235 232 229 228 227 227 229 232 235 237 239 239 239 239 240 242 243 246 249 251 252 251 250 249 250 250 250 249
305 307 309 311 314 315 315 314 313 315 317 317 316 317 320 322 322 319 316 314 314 314 313 313 313 308 303 304 305 297 280 269 260 253 250 247 244 243 244 247 251 253 252 249 247 247 246 246 248 250 246 238 234 233 234 235 236 237 239 240 237 233 231 230 230 232 234 236 237 239 240 241 243 244 245 247 250 254 254 251 248 249 251 251 251 249 247
303 305 308 310 311 312 314 315 315 316 316 314 314 315 318 319 318 316 314 313 313 312 311 310 309 303 297 297 298 293 282 271 261 255 251 249 247 244 242 243 245 246 249 251 250 248 246 243 243 246 248 245 240 236 233 234 235 237 240 243 242 237 234 233 234 236 238 238 239 240 240 241 244 246 246 245 246 248 249 248 247 248 249 250 251 250 246
299 303 307 308 309 310 312 314 315 315 312 310 311 313 315 316 315 314 313 313 312 310 308 307 304 300 297 297 297 294 286 275 262 253 247 246 246 244 242 242 242 242 244 249 250 249 248 244 241 243 246 247 246 243 239 237 237 237 239 241 240 237 234 234 236 239 240 240 239 238 238 239 241 243 244 244 244 246 247 247 246 246 247 248 249 248 245
297 302 305 306 306 308 310 311 311 309 307 306 307 310 313 314 313 311 311 311 309 308 307 305 301 298 297 298 298 296 290 281 269 257 248 243 243 243 242 242 241 239 242 246 247 247 248 246 243 243 244 245 246 246 245 243 241 239 237 236 235 234 232 232 235 238 240 241 239 238 238 239 241 242 243 243 244 245 246 245 245 246 248 248 247 246 245
296 299 302 304 305 305 306 307 306 305 303 303 305 308 311 311 310 310 309 308 307 306 305 303 300 297 297 299 299 296 291 284 276 265 254 246 241 240 241 242 240 238 240 243 244 244 246 247 243 241 242 243 243 243 244 244 243 243 240 236 234 236 237 236 237 239 240 239 237 235 235 238 240 240 240 241 242 243 244 244 245 248 250 250 249 248 246
296 298 299 302 304 304 304 303 302 300 300 301 303 307 308 308 308 308 307 306 306 304 303 300 297 296 297 299 299 298 293 286 278 269 260 251 244 240 240 240 239 238 240 241 242 241 243 246 245 242 242 243 242 241 242 241 242 243 243 239 236 235 231 225 226 231 235 238 239 238 237 238 239 237 235 236 238 240 241 243 245 248 250 250 249 248 247
294 297 298 300 301 302 302 299 296 296 296 298 302 305 306 306 306 306 305 304 303 301 299 297 296 296 297 298 297 296 293 286 278 269 260 254 248 243 241 241 240 239 240 241 240 239 240 243 245 245 244 243 242 241 242 241 241 242 242 239 237 236 231 224 226 234 243 249 253 253 250 248 245 242 237 235 236 237 239 242 246 249 251 251 250 250 249
291 295 296 298 299 299 297 294 293 293 294 297 300 303 303 304 305 305 303 301 300 298 296 295 294 295 297 297 296 295 292 287 279 269 261 256 251 245 243 243 241 239 239 241 241 240 239 240 243 244 245 246 244 242 242 241 241 241 241 240 240 241 243 245 247 252 255 257 258 258 257 255 252 249 246 243 241 242 243 245 247 249 251 252 253 253 253
290 293 294 295 296 295 293 291 290 291 293 296 299 301 302 302 303 302 300 298 296 294 293 293 293 294 296 297 296 294 292 288 281 271 262 257 252 246 243 244 243 240 239 240 241 240 239 239 241 242 244 246 246 244 242 241 241 241 242 241 241 243 246 250 253 254 255 255 255 255 255 255 253 252 251 250 249 249 249 250 251 252 253 253 254 254 255
289 291 292 292 292 290 289 288 288 290 292 295 298 300 301 301 301 299 296 294 292 291 290 290 291 293 295 296 296 294 292 287 281 272 262 254 249 244 242 242 243 241 240 240 240 240 240 239 239 239 240 242 244 244 243 241 241 241 242 243 243 243 245 248 250 251 251 251 251 251 252 253 253 253 253 253 254 254 254 254 255 255 255 255 255 255 255
287 288 289 289 288 287 287 287 287 290 292 295 298 299 299 299 298 295 292 291 290 289 289 289 290 292 294 295 295 294 292 286 278 270 262 253 245 239 237 238 240 242 242 241 239 237 237 238 238 238 238 239 241 242 242 241 241 241 243 244 244 245 245 246 247 248 248 248 248 249 250 251 252 253 253 254 254 255 255 256 256 256 256 256 256 255 255
285 287 287 287 286 285 285 285 287 290 293 296 297 298 297 296 294 292 290 288 287 288 289 291 292 292 293 293 293 292 290 285 276 267 259 250 240 234 232 233 237 241 243 242 237 234 234 236 237 237 236 237 239 240 240 240 240 241 242 244 245 246 246 247 247 247 247 247 248 249 249 250 252 253 254 255 255 255 255 255 255 255 255 256 255 255 255
284 285 284 283 283 283 283 284 287 290 293 295 296 296 294 292 291 290 288 286 286 288 289 291 292 293 293 293 292 290 288 283 275 264 254 245 236 229 228 230 233 237 240 239 236 234 234 236 236 235 235 236 238 239 240 240 240 241 242 244 245 246 247 247 248 248 248 248 248 249 250 252 253 254 255 256 256 256 256 256 256 256 256 256 256 256 256
283 281 281 280 280 280 282 285 288 291 293 295 294 293 292 290 289 288 287 286 287 289 290 291 293 293 292 292 291 289 284 279 270 258 248 240 233 228 228 232 236 238 238 237 236 234 234 235 236 236 236 236 238 240 241 241 242 242 243 244 245 246 247 248 249 249 249 249 249 250 251 252 253 254 255 256 257 257 257 258 258 259 259 259 259 260 259
280 279 278 279 279 280 283 286 289 291 293 293 293 291 290 288 288 288 287 286 287 289 290 290 291 291 291 291 291 287 280 274 265 254 244 239 234 230 230 233 239 241 239 237 235 233 233 234 236 236 236 237 238 240 241 242 243 243 244 243 244 245 246 247 248 248 248 248 249 251 253 254 255 255 256 256 257 258 259 259 260 260 261 261 261 262 262
277 278 278 278 279 281 285 288 290 292 292 292 291 289 288 287 287 287 287 287 288 289 289 289 289 289 289 289 287 282 276 270 262 251 243 238 235 231 229 231 236 239 237 235 234 235 235 236 237 236 236 236 238 240 242 243 243 244 245 245 245 246 247 248 248 248 248 249 250 252 254 256 257 257 258 258 258 258 258 258 259 260 260 261 261 262 262
278 279 278 278 280 283 286 288 290 291 291 291 290 288 286 286 286 286 287 288 289 289 289 288 288 288 287 285 284 279 272 264 255 247 240 236 233 230 229 230 233 236 235 233 233 234 235 236 238 238 237 235 237 240 242 243 243 245 246 247 247 248 249 249 250 250 250 251 251 253 256 258 259 260 260 260 259 259 258 257 257 257 258 258 259 260 261
Height
5688 5684 5679 5674 5669 5664 5660 5656 5652 5648 5644 5640 5637 5633 5630 5627 5624 5620 5617 5614 5611 5607 5604 5600 5596 5592 5588 5584 5581 5578 5575 5572 5568 5564 5561 5558 5556 5554 5552 5551 5549 5549 5549 5549 5550 5553 5555 5559 5563 5565 5568 5571 5573 5576 5579 5582 5586 5591 5595 5599 5603 5607 5613 5617 5620 5625 5629 5633 5637 5641 5645 5649 5654 5659 5665 5670 5674 5677 5681 5684 5687 5690 5695 5698 5700 5705 5709
5687 5683 5679 5673 5669 5665 5660 5656 5652 5648 5644 5640 5637 5634 5630 5627 5624 5621 5618 5615 5611 5608 5604 5600 5597 5593 5590 5587 5583 5580 5578 5575 5571 5567 5564 5562 5560 5557 5556 5554 5552 5552 5552 5552 5554 5556 5559 5561 5565 5568 5570 5573 5575 5578 5581 5584 5588 5592 5596 5600 5604 5608 5613 5617 5620 5624 5626 5630 5635 5639 5643 5648 5653 5657 5662 5666 5670 5674 5678 5681 5684 5688 5692 5695 5698 5703 5707
5687 5683 5679 5673 5669 5664 5660 5656 5652 5648 5644 5641 5637 5634 5631 5627 5624 5621 5618 5615 5612 5608 5604 5601 5598 5595 5592 5589 5586 5583 5581 5578 5575 5570 5568 5566 5564 5562 5560 5558 5556 5556 5556 5557 5558 5560 5563 5565 5568 5571 5574 5576 5578 5580 5583 5586 5590 5594 5597 5601 5604 5608 5613 5618 5621 5623 5626 5630 5635 5638 5642 5646 5649 5653 5657 5662 5666 5670 5675 5679 5681 5686 5691 5694 5697 5701 5706
5687 5683 5678 5673 5668 5664 5660 5656 5652 5649 5645 5641 5637 5634 5631 5628 5625 5622 5619 5615 5612 5609 5605 5602 5599 5597 5594 5591 5588 5586 5584 5581 5578 5575 5571 5569 5568 5567 5565 5563 5561 5561 5561 5562 5563 5564 5567 5569 5571 5574 5577 5579 5581 5583 5586 5588 5591 5595 5598 5601 5605 5609 5613 5617 5621 5624 5629 5634 5636 5637 5640 5644 5647 5651 5655 5660 5664 5668 5671 5675 5678 5684 5689 5691 5694 5698 5702
5686 5682 5678 5673 5668 5664 5660 5656 5653 5649 5645 5641 5637 5634 5631 5628 5625 5622 5619 5616 5613 5610 5606 5603 5600 5598 5596 5593 5591 5588 5586 5584 5582 5579 5576 5573 5572 5571 5570 5569 5567 5566 5566 5566 5567 5569 5571 5573 5575 5577 5579 5582 5584 5586 5588 5590 5593 5596 5599 5602 5606 5610 5614 5617 5621 5624 5628 5631 5634 5637 5641 5646 5649 5652 5655 5658 5662 5665 5668 5672 5676 5681 5685 5687 5691 5694 5698
5686 5682 5678 5673 5668 5663 5659 5656 5653 5649 5645 5641 5637 5634 5631 5628 5625 5623 5620 5617 5614 5611 5608 5605 5602 5599 5597 5595 5593 5591 5589 5587 5585 5583 5581 5578 5576 5575 5574 5574 5573 5571 5571 5571 5571 5572 5574 5575 5577 5579 5582 5584 5586 5588 5590 5592 5595 5598 5601 5604 5607 5611 5615 5618 5621 5624 5627 5629 5632 5637 5641 5645 5649 5652 5656 5660 5663 5664 5667 5670 5674 5677 5679 5683 5687 5690 5695
5686 5682 5678 5673 5668 5663 5659 5655 5653 5649 5645 5641 5637 5634 5631 5628 5625 5623 5620 5618 5615 5612 5610 5607 5604 5601 5599 5597 5595 5593 5591 5589 5588 5586 5584 5582 5580 5578 5578 5578 5578 5577 5576 5576 5576 5577 5577 5578 5580 5581 5583 5585 5587 5590 5592 5594 5597 5600 5603 5605 5608 5612 5616 5619 5622 5625 5627 5630 5633 5636 5639 5642 5646 5650 5654 5658 5662 5665 5668 5670 5673 5675 5678 5683 5685 5686 5693
5685 5682 5678 5673 5668 5663 5659 5655 5652 5649 5646 5642 5637 5634 5631 5628 5625 5623 5621 5618 5616 5613 5611 5609 5605 5603 5600 5598 5597 5595 5593 5592 5590 5589 5587 5585 5584 5582 5581 5580 5581 5580 5580 5580 5580 5580 5581 5581 5582 5583 5584 5586 5589 5591 5593 5596 5598 5601 5604 5607 5609 5613 5617 5619 5622 5625 5628 5630 5633 5636 5639 5642 5646 5648 5651 5655 5658 5662 5665 5668 5671 5675 5678 5682 5683 5685 5693
5684 5681 5677 5673 5669 5664 5659 5655 5651 5648 5646 5642 5638 5634 5631 5628 5625 5623 5621 5619 5616 5614 5612 5610 5608 5605 5602 5600 5598 5597 5595 5594 5592 5591 5589 5588 5587 5586 5584 5583 5583 5582 5583 5583 5584 5583 5583 5583 5583 5584 5585 5587 5589 5591 5594 5596 5599 5602 5605 5608 5610 5614 5617 5619 5622 5625 5628 5631 5633 5636 5640 5643 5646 5648 5651 5655 5657 5659 5661 5665 5668 5672 5675 5679 5681 5685 5692
5684 5681 5677 5673 5669 5664 5660 5656 5651 5648 5645 5642 5638 5634 5631 5628 5626 5623 5621 5619 5617 5615 5613 5612 5610 5607 5604 5601 5600 5599 5597 5596 5594 5593 5592 5591 5590 5588 5587 5586 5585 5584 5584 5585 5585 5585 5584 5584 5584 5584 5585 5587 5589 5591 5594 5597 5600 5603 5606 5608 5611 5614 5617 5620 5623 5625 5628 5631 5633 5636 5640 5642 5644 5648 5651 5655 5657 5659 5661 5664 5666 5670 5673 5676 5679 5684 5692
5683 5680 5676 5673 5669 5664 5660 5656 5652 5648 5645 5642 5639 5635 5631 5628 5626 5623 5622 5620 5618 5616 5614 5613 5611 5609 5606 5603 5601 5600 5598 5597 5596 5595 5594 5593 5592 5591 5589 5588 5587 5587 5586 5586 5586 5586 5585 5585 5585 5585 5586 5587 5589 5592 5595 5598 5600 5603 5606 5609 5612 5614 5617 5619 5622 5625 5628 5630 5633 5636 5639 5641 5644 5648 5651 5653 5656 5658 5661 5664 5667 5670 5672 5675 5678 5683 5689
5682 5679 5676 5672 5669 5665 5660 5656 5652 5648 5645 5642 5639 5636 5632 5628 5626 5624 5622 5620 5618 5616 5615 5614 5612 5610 5608 5605 5603 5601 5600 5598 5597 5596 5595 5595 5594 5593 5592 5591 5590 5589 5588 5588 5587 5587 5586 5586 5586 5586 5586 5588 5590 5592 5595 5598 5601 5604 5606 5609 5612 5614 5617 5620 5622 5625 5628 5630 5633 5636 5638 5641 5644 5647 5650 5652 5654 5657 5660 5663 5666 5669 5671 5674 5677 5682 5686
5681 5678 5675 5671 5668 5664 5660 5656 5652 5648 5645 5641 5639 5636 5632 5629 5626 5624 5622 5620 5618 5617 5615 5614 5613 5611 5609 5607 5604 5602 5601 5599 5598 5597 5596 5596 5595 5595 5594 5593 5592 5591 5590 5589 5589 5589 5588 5587 5588 5588 5588 5589 5591 5593 5596 5599 5602 5605 5608 5610 5612 5614 5617 5620 5623 5625 5628 5631 5634 5636 5638 5641 5644 5647 5649 5651 5653 5655 5658 5660 5664 5666 5668 5671 5675 5679 5683
5680 5677 5674 5670 5667 5664 5660 5656 5652 5648 5644 5641 5638 5635 5633 5629 5626 5623 5622 5620 5618 5617 5615 5614 5612 5611 5610 5608 5606 5604 5602 5601 5599 5598 5597 5597 5596 5596 5595 5594 5593 5593 5592 5591 5591 5590 5590 5589 5590 5590 5591 5591 5593 5595 5597 5600 5602 5605 5608 5610 5612 5615 5618 5621 5623 5625 5628 5630 5633 5636 5638 5641 5644 5646 5648 5650 5652 5654 5657 5660 5663 5665 5667 5670 5673 5676 5680
5679 5676 5672 5669 5666 5663 5659 5655 5651 5648 5644 5641 5637 5635 5632 5629 5626 5623 5621 5619 5618 5617 5615 5614 5612 5611 5610 5609 5607 5605 5603 5602 5600 5599 5598 5598 5597 5597 5596 5595 5595 5594 5593 5593 5593 5592 5592 5591 5592 5593 5593 5593 5594 5596 5598 5600 5603 5605 5608 5610 5613 5615 5618 5621 5623 5625 5627 5630 5632 5635 5638 5640 5642 5644 5647 5649 5651 5654 5656 5659 5661 5663 5666 5669 5671 5674 5678
5677 5674 5671 5668 5665 5662 5659 5655 5651 5647 5644 5641 5637 5634 5631 5629 5626 5623 5621 5619 5617 5616 5615 5614 5612 5611 5610 5609 5608 5606 5604 5603 5601 5600 5599 5598 5598 5597 5597 5596 5596 5595 5595 5594 5594 5594 5594 5593 5594 5594 5595 5596 5596 5597 5599 5600 5603 5605 5608 5611 5613 5616 5618 5621 5623 5625 5628 5630 5632 5635 5637 5639 5641 5643 5646 5648 5650 5652 5654 5657 5660 5662 5665 5668 5670 5673 5676
5675 5673 5670 5667 5663 5661 5658 5654 5651 5647 5643 5641 5637 5634 5631 5628 5626 5623 5620 5618 5617 5615 5614 5613 5612 5611 5610 5609 5608 5607 5605 5604 5602 5601 5600 5599 5598 5598 5597 5597 5596 5596 5596 5596 5596 5596 5595 5595 5595 5596 5597 5598 5599 5600 5600 5602 5604 5606 5609 5611 5614 5616 5619 5621 5623 5625 5628 5630 5632 5634 5636 5638 5640 5642 5645 5647 5649 5651 5654 5656 5659 5661 5663 5666 5669 5672 5675
5673 5670 5668 5665 5662 5659 5656 5653 5650 5647 5643 5640 5637 5634 5631 5628 5625 5623 5620 5618 5616 5615 5613 5612 5611 5610 5609 5608 5607 5606 5605 5604 5603 5602 5601 5600 5599 5598 5598 5597 5597 5597 5596 5596 5596 5596 5596 5596 5597 5597 5598 5599 5600 5602 5603 5604 5606 5607 5610 5612 5615 5617 5619 5621 5623 5625 5627 5630 5632 5634 5635 5637 5640 5642 5644 5646 5649 5651 5653 5656 5658 5660 5662 5665 5668 5671 5674
5670 5668 5666 5663 5660 5658 5655 5652 5649 5646 5642 5639 5636 5634 5630 5627 5624 5622 5620 5617 5615 5614 5612 5611 5610 5610 5609 5608 5607 5606 5605 5604 5603 5602 5601 5600 5599 5598 5598 5598 5597 5597 5597 5597 5597 5597 5597 5597 5597 5598 5599 5600 5601 5603 5605 5606 5608 5609 5611 5613 5615 5618 5620 5622 5624 5625 5627 5629 5631 5633 5635 5636 5639 5641 5643 5646 5648 5650 5652 5654 5656 5658 5661 5664 5667 5670 5673
5668 5665 5663 5661 5659 5656 5653 5651 5648 5645 5642 5638 5635 5633 5630 5627 5624 5621 5619 5616 5614 5613 5611 5610 5609 5608 5608 5607 5606 5605 5605 5604 5603 5602 5602 5601 5600 5599 5598 5598 5598 5598 5598 5597 5597 5597 5598 5598 5598 5598 5599 5601 5602 5604 5606 5607 5609 5610 5612 5614 5616 5618 5620 5622 5624 5625 5627 5629 5631 5632 5634 5636 5638 5640 5642 5644 5646 5648 5650 5652 5654 5656 5659 5662 5665 5668 5671
5665 5663 5661 5659 5656 5654 5651 5649 5646 5644 5641 5637 5634 5631 5629 5626 5623 5620 5618 5615 5613 5612 5610 5609 5608 5607 5607 5606 5605 5604 5604 5604 5603 5602 5602 5601 5600 5599 5599 5598 5598 5598 5598 5598 5598 5598 5598 5598 5598 5599 5600 5601 5603 5604 5606 5608 5609 5610 5612 5615 5617 5619 5620 5622 5623 5625 5627 5629 5630 5631 5633 5635 5637 5639 5641 5643 5644 5647 5649 5651 5652 5654 5657 5660 5663 5666 5669
5662 5660 5658 5656 5654 5652 5649 5646 5644 5642 5639 5636 5633 5630 5628 5625 5622 5619 5617 5614 5612 5610 5609 5608 5607 5606 5605 5605 5604 5603 5603 5603 5602 5602 5601 5601 5600 5600 5599 5598 5598 5598 5598 5598 5598 5598 5598 5599 5599 5600 5600 5601 5603 5604 5606 5608 5610 5611 5612 5614 5616 5618 5620 5621 5623 5625 5626 5628 5629 5630 5632 5635 5637 5639 5640 5642 5644 5646 5647 5649 5651 5653 5655 5658 5660 5663 5666
5659 5657 5655 5653 5651 5649 5647 5644 5642 5639 5637 5635 5631 5628 5626 5624 5621 5618 5616 5612 5610 5609 5608 5606 5605 5604 5604 5603 5603 5603 5602 5601 5601 5601 5601 5600 5599 5599 5599 5599 5598 5597 5597 5597 5598 5598 5598 5599 5600 5601 5601 5602 5603 5605 5606 5608 5609 5611 5612 5614 5615 5617 5619 5620 5622 5624 5625 5627 5628 5630 5632 5634 5636 5638 5640 5641 5643 5644 5646 5648 5649 5651 5654 5656 5658 5661 5664
5656 5654 5652 5650 5648 5646 5644 5642 5639 5637 5635 5632 5630 5627 5624 5622 5619 5617 5615 5612 5609 5607 5606 5605 5603 5603 5602 5602 5601 5601 5601 5600 5600 5600 5600 5599 5599 5598 5599 5599 5598 5597 5597 5597 5597 5597 5598 5599 5600 5601 5602 5603 5604 5604 5605 5607 5608 5610 5612 5613 5615 5616 5618 5620 5621 5623 5624 5626 5627 5629 5631 5633 5635 5637 5639 5640 5642 5644 5645 5647 5648 5650 5652 5654 5656 5659 5661
5653 5651 5650 5648 5646 5644 5641 5639 5637 5634 5632 5630 5627 5625 5622 5620 5618 5615 5613 5611 5608 5605 5604 5603 5602 5601 5600 5600 5600 5600 5600 5599 5599 5598 5598 5598 5598 5598 5598 5599 5598 5598 5597 5597 5597 5598 5598 5599 5600 5601 5602 5602 5603 5604 5605 5607 5608 5609 5611 5613 5614 5616 5618 5619 5621 5622 5624 5625 5627 5628 5630 5631 5633 5635 5637 5639 5640 5642 5644 5645 5647 5649 5650 5652 5654 5656 5658
5650 5648 5647 5645 5643 5641 5639 5637 5634 5632 5629 5627 5625 5622 5620 5618 5616 5613 5611 5609 5607 5604 5602 5601 5600 5599 5599 5598 5598 5598 5598 5598 5598 5597 5597 5597 5597 5597 5597 5598 5598 5597 5597 5597 5597 5598 5598 5598 5599 5600 5601 5602 5603 5604 5605 5606 5608 5609 5611 5612 5614 5616 5617 5619 5620 5622 5623 5625 5626 5627 5629 5630 5632 5633 5635 5637 5639 5640 5642 5643 5645 5647 5648 5650 5652 5654 5656
5647 5645 5644 5642 5640 5638 5636 5634 5632 5629 5627 5624 5622 5620 5618 5615 5613 5611 5609 5607 5605 5602 5600 5599 5599 5598 5597 5596 5596 5596 5596 5596 5597 5596 5596 5596 5596 5596 5597 5597 5597 5597 5596 5597 5597 5597 5598 5598 5599 5599 5600 5602 5603 5604 5605 5606 5607 5608 5610 5611 5613 5615 5617 5618 5619 5621 5622 5624 5625 5626 5628 5629 5630 5631 5633 5635 5636 5638 5639 5641 5642 5644 5646 5648 5650 5651 5653
5644 5642 5641 5639 5637 5635 5633 5631 5629 5627 5624 5621 5619 5617 5615 5613 5611 5609 5607 5605 5603 5601 5598 5596 5596 5596 5595 5595 5594 5594 5594 5595 5595 5595 5595 5595 5595 5596 5596 5596 5596 5596 5596 5596 5597 5597 5597 5598 5598 5599 5600 5601 5602 5603 5604 5606 5607 5608 5609 5611 5612 5614 5616 5617 5618 5619 5621 5623 5624 5626 5627 5628 5629 5630 5632 5633 5635 5636 5637 5639 5640 5642 5644 5645 5647 5649 5651
5641 5640 5638 5636 5634 5632 5630 5628 5626 5624 5621 5619 5616 5614 5613 5611 5609 5607 5605 5603 5601 5599 5597 5594 5594 5594 5593 5593 5592 5592 5592 5593 5593 5593 5594 5594 5594 5595 5595 5595 5595 5596 5596 5596 5596 5596 5596 5597 5597 5598 5599 5600 5601 5602 5603 5605 5606 5607 5609 5610 5611 5613 5614 5616 5616 5618 5619 5621 5623 5624 5625 5626 5627 5629 5630 5631 5633 5634 5636 5637 5638 5640 5641 5642 5644 5646 5648
5639 5637 5635 5633 5632 5630 5628 5625 5623 5621 5619 5616 5614 5612 5610 5609 5607 5604 5602 5601 5599 5598 5595 5593 5592 5592 5591 5590 5590 5590 5590 5590 5591 5592 5592 5592 5592 5593 5593 5594 5594 5594 5595 5595 5595 5596 5596 5596 5596 5597 5598 5599 5600 5601 5602 5603 5605 5606 5607 5608 5610 5611 5613 5614 5615 5616 5617 5619 5620 5622 5623 5624 5626 5627 5628 5630 5632 5633 5634 5635 5637 5638 5639 5640 5641 5643 5645
5636 5634 5632 5631 5629 5627 5625 5622 5620 5618 5616 5614 5612 5610 5608 5607 5605 5602 5600 5598 5597 5595 5593 5591 5590 5590 5589 5588 5588 5588 5588 5588 5589 5590 5590 5590 5591 5591 5592 5592 5592 5593 5593 5593 5594 5594 5594 5595 5595 5596 5597 5598 5599 5600 5601 5602 5603 5604 5605 5606 5608 5609 5611 5612 5613 5614 5615 5616 5618 5619 5621 5622 5624 5625 5626 5628 5630 5631 5632 5633 5634 5636 5637 5638 5639 5640 5642
5633 5631 5630 5628 5626 5624 5622 5619 5617 5615 5613 5611 5609 5607 5606 5604 5602 5600 5597 5596 5594 5593 5591 5589 5588 5588 5588 5586 5586 5586 5586 5586 5587 5587 5588 5588 5589 5589 5590 5590 5591 5591 5591 5592 5592 5592 5593 5593 5594 5594 5595 5596 5597 5598 5599 5600 5601 5602 5603 5605 5606 5607 5608 5609 5611 5612 5613 5615 5616 5617 5618 5620 5621 5623 5625 5626 5628 5628 5629 5630 5632 5633 5634 5636 5637 5638 5640
5629 5628 5626 5624 5623 5620 5618 5616 5614 5612 5610 5608 5606 5604 5603 5601 5599 5597 5595 5593 5592 5591 5590 5588 5586 5586 5585 5585 5583 5583 5584 5584 5584 5585 5585 5586 5587 5587 5588 5588 5589 5589 5589 5590 5590 5590 5591 5591 5592 5592 5593 5594 5595 5596 5597 5598 5599 5600 5601 5603 5604 5605 5606 5607 5609 5610 5611 5612 5613 5614 5615 5617 5618 5620 5622 5623 5624 5625 5627 5628 5628 5630 5630 5631 5633 5635 5636
5625 5624 5622 5621 5619 5617 5615 5613 5611 5609 5607 5605 5603 5601 5599 5598 5596 5594 5592 5590 5589 5588 5587 5586 5585 5584 5583 5582 5582 5581 5581 5581 5581 5582 5582 5583 5584 5585 5585 5586 5586 5587 5587 5588 5588 5588 5589 5589 5590 5590 5591 5592 5593 5594 5595 5596 5597 5598 5599 5600 5601 5602 5603 5604 5606 5608 5609 5610 5611 5612 5613 5614 5614 5615 5617 5619 5620 5621 5623 5623 5624 5625 5626 5627 5628 5630 5631
5621 5620 5618 5617 5615 5613 5611 5609 5607 5605 5603 5601 5599 5598 5596 5595 5593 5591 5589 5587 5586 5585 5584 5584 5583 5582 5580 5579 5579 5579 5578 5578 5578 5579 5579 5580 5581 5582 5583 5584 5584 5585 5585 5586 5586 5586 5587 5587 5588 5588 5589 5590 5590 5591 5592 5594 5594 5595 5596 5597 5598 5599 5600 5602 5604 5605 5606 5608 5608 5609 5610 5610 5611 5611 5613 5615 5616 5616 5617 5618 5620 5621 5622 5623 5624 5626 5627
5617 5616 5614 5613 5611 5609 5607 5605 5603 5601 5600 5598 5596 5595 5594 5592 5590 5588 5587 5585 5584 5583 5581 5581 5580 5580 5578 5576 5576 5576 5575 5575 5575 5576 5577 5577 5579 5580 5581 5581 5582 5582 5583 5583 5583 5584 5585 5585 5586 5586 5587 5587 5588 5589 5590 5591 5592 5593 5594 5594 5595 5596 5598 5599 5601 5602 5603 5604 5605 5606 5606 5607 5608 5609 5610 5612 5612 5613 5613 5615 5616 5617 5619 5620 5621 5622 5623
5613 5612 5611 5609 5608 5606 5604 5602 5600 5598 5596 5595 5593 5592 5590 5589 5587 5585 5584 5582 5581 5580 5579 5578 5577 5577 5576 5574 5573 5573 5573 5573 5573 5573 5574 5574 5575 5577 5578 5578 5579 5580 5581 5581 5581 5582 5582 5583 5584 5584 5585 5585 5585 5586 5587 5588 5589 5590 5591 5591 5592 5593 5594 5596 5597 5598 5600 5601 5602 5602 5603 5604 5605 5605 5606 5608 5609 5610 5611 5612 5613 5614 5616 5617 5618 5619 5620
5609 5608 5606 5605 5604 5602 5600 5598 5596 5595 5593 5592 5590 5589 5587 5586 5584 5582 5581 5579 5578 5577 5576 5575 5574 5574 5573 5572 5571 5570 5570 5570 5570 5570 5570 5571 5572 5573 5574 5575 5576 5577 5578 5578 5579 5579 5580 5581 5581 5582 5582 5582 5583 5584 5585 5585 5586 5587 5588 5588 5589 5589 5591 5592 5594 5595 5596 5597 5598 5599 5600 5601 5601 5602 5603 5604 5606 5607 5608 5609 5610 5611 5612 5613 5614 5615 5616
5604 5603 5602 5601 5599 5598 5596 5594 5593 5591 5590 5588 5587 5586 5584 5583 5581 5580 5578 5577 5575 5574 5573 5572 5572 5571 5570 5570 5569 5568 5567 5567 5567 5567 5567 5568 5568 5569 5570 5571 5572 5574 5575 5575 5576 5577 5578 5578 5579 5579 5579 5580 5580 5581 5582 5583 5584 5584 5585 5585 5586 5586 5587 5589 5590 5591 5592 5593 5594 5595 5596 5597 5598 5599 5600 5600 5602 5604 5605 5606 5607 5608 5609 5610 5610 5611 5612
5599 5598 5597 5596 5595 5594 5592 5590 5589 5587 5586 5585 5584 5582 5581 5579 5578 5576 5575 5573 5572 5571 5570 5569 5569 5568 5567 5567 5566 5566 5565 5565 5564 5564 5564 5564 5565 5566 5566 5567 5569 5571 5572 5572 5573 5574 5575 5576 5577 5577 5577 5577 5578 5579 5580 5580 5581 5582 5582 5583 5583 5584 5584 5586 5587 5588 5588 5589 5590 5592 5593 5594 5595 5595 5596 5597 5598 5600 5601 5603 5604 5604 5605 5606 5606 5607 5608
5594 5593 5592 5591 5590 5589 5587 5586 5584 5583 5582 5581 5580 5578 5577 5576 5574 5573 5572 5570 5569 5568 5567 5566 5565 5565 5565 5564 5563 5563 5563 5562 5562 5561 5561 5561 5562 5562 5563 5563 5565 5567 5568 5569 5570 5571 5572 5573 5574 5574 5574 5574 5575 5576 5577 5578 5579 5579 5579 5580 5581 5581 5581 5583 5584 5584 5585 5585 5587 5588 5589 5590 5591 5592 5593 5593 5595 5596 5598 5599 5600 5601 5601 5602 5603 5603 5604
5589 5588 5587 5586 5585 5584 5582 5581 5580 5579 5578 5577 5576 5575 5573 5572 5571 5570 5568 5567 5566 5565 5564 5563 5562 5562 5562 5561 5560 5560 5559 5559 5559 5558 5558 5558 5559 5559 5559 5560 5562 5564 5564 5565 5566 5568 5569 5570 5571 5571 5571 5571 5573 5573 5574 5575 5576 5576 5577 5578 5578 5578 5578 5580 5581 5581 5581 5582 5584 5585 5586 5587 5587 5588 5589 5590 5591 5593 5594 5595 5596 5597 5598 5598 5599 5600 5601
5584 5583 5582 5581 5580 5578 5577 5576 5576 5575 5574 5573 5572 5571 5569 5568 5567 5566 5565 5563 5562 5562 5561 5560 5559 5559 5559 5558 5557 5556 5556 5555 5555 5555 5555 5554 5555 5556 5556 5557 5558 5560 5561 5561 5563 5565 5566 5567 5567 5568 5568 5569 5570 5570 5571 5572 5573 5573 5574 5575 5575 5575 5576 5577 5578 5578 5579 5580 5581 5582 5583 5584 5584 5585 5586 5587 5588 5589 5590 5591 5592 5593 5594 5595 5596 5596 5597
5578 5578 5577 5575 5574 5573 5573 5572 5571 5571 5570 5569 5568 5567 5566 5565 5564 5563 5561 5560 5559 5558 5558 5557 5556 5556 5555 5555 5554 5553 5553 5552 5552 5552 5552 5552 5552 5553 5554 5554 5555 5556 5557 5558 5560 5561 5563 5564 5564 5564 5565 5566 5566 5567 5568 5569 5570 5570 5571 5572 5572 5573 5573 5574 5575 5576 5577 5578 5579 5580 5580 5581 5581 5582 5583 5584 5585 5586 5587 5588 5589 5590 5590 5591 5592 5593 5594
5573 5572 5571 5570 5569 5569 5568 5568 5567 5567 5566 5565 5564 5563 5562 5561 5560 5559 5558 5557 5556 5555 5554 5554 5553 5552 5552 5552 5551 5550 5550 5549 5549 5548 5549 5549 5549 5550 5551 5551 5552 5553 5554 5555 5556 5558 5559 5560 5560 5560 5561 5562 5563 5564 5565 5565 5566 5567 5568 5568 5569 5570 5571 5571 5572 5573 5574 5575 5576 5577 5577 5577 5578 5579 5580 5581 5582 5583 5583 5584 5585 5586 5586 5587 5588 5589 5590
5568 5567 5566 5565 5565 5565 5564 5564 5563 5563 5562 5561 5560 5559 5558 5557 5556 5556 5555 5553 5552 5551 5551 5550 5550 5549 5549 5549 5548 5547 5547 5546 5546 5545 5545 5546 5546 5547 5547 5547 5548 5549 5550 5552 5553 5554 5555 5555 5556 5556 5557 5558 5559 5560 5561 5562 5563 5564 5565 5565 5566 5567 5568 5569 5570 5571 5571 5572 5573 5573 5573 5574 5574 5575 5576 5577 5578 5579 5580 5580 5581 5582 5583 5583 5584 5585 5586
5563 5563 5562 5561 5561 5561 5560 5560 5559 5559 5558 5557 5557 5556 5554 5553 5552 5552 5551 5550 5549 5548 5547 5546 5546 5546 5545 5545 5545 5544 5543 5543 5542 5542 5542 5542 5543 5544 5544 5544 5545 5546 5547 5548 5549 5550 5551 5551 5552 5552 5553 5554 5555 5556 5557 5559 5560 5560 5561 5562 5563 5564 5565 5565 5566 5567 5568 5569 5569 5570 5570 5570 5571 5572 5572 5573 5574 5575 5576 5576 5577 5578 5579 5579 5580 5581 5582
5559 5558 5558 5557 5557 5557 5556 5555 5555 5555 5554 5553 5553 5552 5550 5549 5548 5548 5548 5546 5545 5545 5544 5542 5542 5542 5542 5541 5541 5541 5540 5539 5539 5539 5539 5539 5540 5540 5541 5541 5542 5542 5543 5544 5545 5546 5546 5547 5548 5549 5550 5551 5552 5552 5554 5555 5556 5557 5558 5559 5560 5561 5561 5562 5563 5564 5565 5565 5566 5566 5566 5567 5568 5568 5569 5569 5570 5571 5572 5572 5573 5574 5574 5575 5576 5577 5578
5554 5554 5553 5553 5553 5552 5552 5551 5551 5550 5550 5549 5548 5548 5546 5545 5545 5545 5544 5543 5542 5541 5540 5539 5538 5538 5537 5537 5538 5537 5536 5536 5535 5536 5536 5536 5537 5537 5537 5538 5538 5539 5539 5540 5541 5542 5543 5543 5544 5545 5546 5547 5548 5549 5550 5551 5552 5553 5554 5555 5556 5557 5558 5559 5560 5560 5561 5562 5562 5562 5563 5564 5564 5565 5565 5566 5566 5567 5568 5568 5569 5570 5570 5571 5572 5572 5573
5550 5549 5549 5549 5549 5548 5547 5547 5546 5546 5545 5545 5544 5543 5542 5541 5541 5541 5540 5539 5538 5537 5536 5535 5534 5534 5533 5533 5534 5534 5533 5532 5532 5532 5532 5532 5533 5533 5534 5535 5535 5535 5535 5536 5537 5538 5539 5540 5541 5542 5543 5544 5545 5545 5546 5548 5549 5550 5551 5552 5553 5553 5554 5555 5556 5557 5557 5558 5559 5559 5560 5560 5560 5561 5561 5562 5562 5563 5564 5564 5565 5565 5566 5567 5567 5568 5568
5546 5545 5545 5545 5544 5544 5543 5543 5542 5541 5540 5540 5540 5540 5539 5538 5537 5536 5535 5534 5534 5533 5532 5531 5530 5530 5529 5529 5529 5529 5529 5528 5528 5528 5528 5528 5529 5530 5531 5531 5531 5531 5531 5532 5534 5535 5536 5537 5538 5539 5540 5541 5541 5542 5543 5544 5545 5546 5547 5548 5549 5550 5550 5551 5552 5553 5554 5554 5555 5556 5556 5556 5557 5557 5558 5558 5558 5559 5560 5560 5561 5561 5562 5562 5563 5563 5564
5542 5542 5541 5541 5540 5540 5539 5539 5538 5537 5536 5535 5535 5535 5535 5534 5533 5532 5531 5530 5529 5529 5528 5527 5526 5526 5525 5525 5524 5524 5524 5524 5524 5524 5524 5524 5525 5526 5526 5526 5526 5527 5528 5529 5530 5531 5532 5533 5534 5535 5536 5537 5538 5539 5540 5541 5542 5543 5543 5544 5545 5546 5547 5548 5549 5549 5550 5550 5551 5552 5552 5553 5553 5554 5554 5554 5555 5555 5556 5556 5557 5557 5558 5558 5559 5559 5559